Weather in Guaruja

Brazil     23°59′23″S   46°15′38″W
temp.,
°C
wind,
m/s
gust,
m/s
humid.,
%
clouds,
%
prec.,
mm/h
press.,
hPa
HPBL,
m
16 october, sat
sat1600:00+21wnw5794100 3.3 1013323
03:00+22ene3488100 7.4 100970
06:00+23wsw1185100 0.0 101112
09:00+24sw348067 0.0 1013356
12:00+22sw6992100 0.0 1015335
15:00+22ssw7993100 0.3 1015529
18:00+21sw6792100 1.3 1016543
21:00+21wsw4593100 2.4 1018330
17 october, sun
sun1700:00+21ssw4593100 2.4 1017384
03:00+20s3492100 5.4 1016323
06:00+21sse2389100 1.1 1017340
09:00+21sse3387100 1.8 1018400
12:00+21se4487100 0.6 1017470
15:00+21se3488100 1.4 1015502
18:00+20se4692100 2.4 1016495
21:00+20ese5793100 6.0 1017559
18 october, mon
mon1800:00+20ese5694100 2.1 1016582
03:00+20se4593100 5.2 1015452
06:00+20se5693100 3.3 1015506
09:00+20se6793100 6.0 1017533
12:00+20se6793100 3.5 1017513
15:00+20se6893100 7.4 1016595
18:00+20se91190100 6.1 1017753
21:00+20se81089100 9.7 1019773
19 october, tue
tue1900:00+19se7990100 4.4 1019682
03:00+19se8988100 8.0 1018759
06:00+19se7886100 2.4 1019697
09:00+19se5686100 4.4 1021650
12:00+19se7888100 4.3 1020688
15:00+18se6792100 20.3 1019669
18:00+18se91187100 4.3 1020896
21:00+18ese91186100 9.1 1021962
20 october, wed
wed2000:00+17se91189100 10.4 1021827
03:00+17ese91091100 19.9 1017818
06:00+17e788998 11.8 1019653
09:00+18e7989100 15.2 1020689
12:00+18ese8989100 4.8 1019723
15:00+18se81085100 9.9 1018796
18:00+19se7885100 3.3 1019732
21:00+19e6785100 5.8 1020636